Notices

What's New in latest Release from April 7th, 2021:

- Updated Glossary, including Speed of Maximum Gust, and Total Hourly Precipitation

- Updated national and regional climate services offices contacts and prices information

- Addition of station inventory lists for 1981-2010, 1971-2000, and 1961-1990 Normals.

If you haven't already, please take our survey and provide feedback about our website: https://eccc.sondage-survey.ca/f/LanguageSelection.aspx?s=442ca660-fcf1-47c0-95a9-59707d6fd709

Hourly Data Report for July 06, 2020

OTTAWA INTL A
ONTARIO
Current Station Operator: NAVCAN

45°19'00.000" N
75°40'00.000" W
114.90 m
6106001
71628
YOW

Download Data

Hourly Data (July 2020)
Hourly Data Report for July 6, 2020
TIME
LST
Temp Definition
°C
Dew Point Definition
°C
Rel Hum Definition
%
Precip. Amount Definition
mm

Wind Dir Definition
10's deg

Wind Spd Definition
km/h
Visibility Definition
km
Stn Press Definition
kPa
Hmdx Definition


Wind Chill Definition


Weather Definition


00:00 18.5 13.7 73   5 5 24.1 100.28     LegendNANA
01:00 18.0 13.7 75   5 9 24.1 100.30     Clear
02:00 16.6 13.3 81   2 7 24.1 100.31     LegendNANA
03:00 16.6 13.4 81   5 8 24.1 100.32     LegendNANA
04:00 15.9 13.6 86   4 8 24.1 100.35     Clear
05:00 15.8 14.0 89   5 9 24.1 100.40     LegendNANA
06:00 17.9 15.2 84   5 8 24.1 100.46     LegendNANA
07:00 20.4 14.6 69   6 7 24.1 100.51     Clear
08:00 23.2 14.5 58   9 5 24.1 100.53 27   LegendNANA
09:00 24.9 14.2 51   9 10 24.1 100.53 28   LegendNANA
10:00 26.2 13.5 45   9 6 24.1 100.55 29   Clear
11:00 27.6 12.8 40   13 11 24.1 100.53 30   LegendNANA
12:00 28.7 10.9 33   16 10 24.1 100.50 30   LegendNANA
13:00 30.0 10.1 29   12 13 24.1 100.46 31   Clear
14:00 29.6 9.6 28   16 12 24.1 100.43 31   LegendNANA
15:00 30.2 8.2 25   20 13 24.1 100.39 31   LegendNANA
16:00 30.2 9.3 27   16 6 24.1 100.34 31   Mainly Clear
17:00 30.2 8.6 26   20 11 24.1 100.31 31   LegendNANA
18:00 29.2 9.3 28   14 9 24.1 100.27 30   LegendNANA
19:00 25.7 11.7 41   14 7 24.1 100.27 28   Mainly Clear
20:00 21.8 11.2 50   11 8 24.1 100.27     LegendNANA
21:00 20.5 9.3 48   12 12 24.1 100.33     LegendNANA
22:00 21.4 8.8 44   13 14 24.1 100.33     Mainly Clear
23:00 20.6 9.5 48   11 14 24.1 100.33     LegendNANA

Notes on Data Quality.

Legend

  • E = Estimated
  • M = Missing
  • NA = Not Available*
  • [empty] = Indicates an unobserved value
Date modified: